GFSSW_sfc_dewp_057.txt.gz
Dewpoint
51 50 50 50 50 52 51 51 51 51 52 52 53 53 54 54 54 49 44 41 49 51 51 31 25 23 22 23 30 36 35 28 30 30 29 37 34 35 35 33 33 32 32 31 48
52 52 52 52 51 50 51 51 51 51 52 52 52 53 53 54 50 47 49 50 55 53 29 20 24 23 18 21 26 30 28 27 33 35 34 35 33 33 30 31 30 30 30 30 29
53 53 53 52 52 51 51 51 51 51 52 52 52 52 53 52 44 31 55 54 54 53 32 30 30 25 17 22 23 26 23 30 30 28 28 29 30 28 28 28 29 27 27 26 30
53 52 52 52 52 52 51 51 51 51 51 51 52 52 53 51 24 38 59 58 57 43 38 35 28 19 18 17 20 19 22 24 26 23 19 23 24 22 24 26 26 25 26 29 27
52 52 52 52 51 51 51 51 51 50 50 50 51 51 50 34 32 43 59 55 49 41 34 33 25 20 16 17 20 18 19 19 18 18 17 17 19 21 19 21 21 23 23 23 25
52 52 52 51 50 50 51 50 50 50 50 50 51 51 46 14 27 40 51 49 45 40 34 34 22 22 21 21 19 19 20 19 17 17 17 15 16 16 18 20 20 22 24 25 27
52 51 50 50 50 50 51 51 50 50 50 51 51 49 43 14 33 39 45 39 43 39 30 32 26 21 22 18 21 21 17 16 15 16 16 17 15 15 20 21 21 21 21 23 24
50 49 49 50 50 50 51 51 51 50 51 52 52 50 26 29 35 39 39 36 37 39 35 30 24 22 22 22 21 18 16 9 14 15 14 16 8 16 22 21 20 20 21 22 24
50 50 49 50 50 50 51 51 52 52 52 53 50 43 32 44 36 28 33 23 17 21 27 21 23 22 21 19 19 17 12 12 13 20 20 17 15 17 23 23 25 25 22 21 24
50 50 49 49 50 50 51 51 53 53 51 51 47 40 36 32 37 34 23 21 18 19 18 20 22 20 20 18 10 12 12 14 13 15 20 16 16 19 22 22 23 24 23 23 24
49 49 49 49 50 50 50 44 35 34 46 31 32 32 31 34 32 22 20 19 19 19 15 18 15 15 15 19 17 16 16 14 17 18 19 17 17 17 19 22 22 24 25 28 27
48 49 49 49 50 51 46 37 37 36 33 32 34 35 35 34 28 26 24 18 18 16 16 14 12 16 16 16 17 17 15 16 20 21 19 16 18 18 19 21 23 25 26 29 30
49 49 49 49 50 44 39 38 40 37 31 28 28 29 28 32 27 26 22 19 17 16 14 14 12 16 15 15 16 18 17 18 16 21 20 21 9 14 12 21 22 23 26 26 28
49 49 50 49 43 42 38 41 40 35 27 23 23 25 27 27 22 27 23 19 16 15 15 15 15 14 14 14 17 14 21 20 19 16 7 19 1 15 17 16 19 20 26 26 28
49 50 50 48 42 39 41 41 39 38 17 24 19 21 19 16 17 17 22 19 18 16 17 13 14 14 14 13 21 13 24 21 20 18 20 12 14 14 20 14 18 23 26 30 34
50 50 49 47 46 42 40 41 40 29 19 17 18 18 20 19 18 20 19 19 20 17 17 16 17 16 16 22 22 24 20 20 22 20 10 16 16 9 13 16 19 20 26 32 32
49 49 48 43 35 40 42 38 29 23 20 18 17 18 19 22 22 24 23 19 16 16 16 15 13 22 25 20 22 21 20 11 7 7 4 21 14 14 20 20 18 20 24 31 35
48 48 48 44 45 45 39 33 27 23 19 20 18 20 19 23 23 23 22 22 26 18 16 17 14 21 25 19 17 20 21 15 10 6 7 15 12 14 21 23 26 28 31 34 35
47 46 45 44 45 40 35 29 26 25 25 24 20 20 22 23 22 23 23 24 26 27 22 21 20 25 24 24 22 22 22 23 24 22 19 13 16 21 21 23 25 27 30 32 32
45 43 42 42 43 41 34 31 30 27 26 24 20 21 19 19 21 23 23 27 27 28 28 26 23 24 25 25 25 24 25 25 27 19 13 12 15 14 19 20 21 24 28 31 32
43 38 40 40 43 37 32 30 31 27 28 27 22 21 21 21 24 23 21 26 28 29 30 28 27 22 27 25 21 23 24 28 27 25 16 12 13 23 23 24 26 27 29 31 33
42 34 41 38 30 32 31 29 33 28 30 29 29 25 25 27 24 23 23 24 29 31 27 32 30 23 22 23 28 26 25 27 26 25 27 27 20 24 26 27 30 28 27 29 35
39 39 42 37 33 26 29 29 30 28 29 29 29 29 30 26 25 26 26 29 28 29 31 35 29 22 17 25 29 27 27 28 29 33 26 23 20 26 27 29 30 31 31 33 36
35 26 29 33 32 29 29 27 29 29 29 29 28 30 29 27 29 28 28 29 29 28 33 36 31 26 20 17 27 28 25 27 29 29 23 23 23 26 29 30 32 34 35 36 37
33 32 34 19 25 31 32 30 28 28 30 29 29 29 29 28 28 27 28 28 28 32 34 35 30 29 27 27 27 27 27 27 27 27 26 25 24 26 28 31 34 35 36 36 35
30 30 34 32 32 31 30 28 27 29 29 26 27 31 30 28 28 26 26 28 29 31 35 37 32 32 27 28 28 27 27 27 28 28 28 28 30 31 33 34 33 35 34 34 35
37 38 36 26 29 27 24 28 28 31 29 32 31 31 29 28 30 32 32 32 32 32 32 35 33 27 19 27 28 23 24 25 26 28 28 27 28 32 32 33 34 34 35 35 34

GFSSW_sfc_dewp_063.txt.gz
Dewpoint
53 53 54 54 54 54 54 53 53 53 52 53 53 53 53 54 54 42 40 39 39 48 49 21 23 19 19 20 24 26 27 25 25 25 26 26 27 30 32 32 31 31 31 32 33
53 53 53 53 53 53 53 53 53 53 52 52 52 53 53 53 45 36 50 54 49 52 35 21 14 14 16 18 21 22 24 25 25 25 25 25 26 28 30 32 33 33 33 33 32
52 52 52 52 52 53 52 52 53 53 52 52 52 52 53 52 42 33 55 55 56 51 28 15 16 15 16 15 18 20 20 21 23 24 24 24 27 28 30 31 32 33 33 33 32
52 50 50 50 50 52 52 52 52 52 52 51 51 52 53 47 30 37 55 54 55 49 31 20 14 16 13 13 16 17 18 19 19 21 21 23 28 30 31 32 32 33 35 33 32
51 51 51 50 50 50 51 51 52 51 51 51 51 52 49 35 25 46 57 54 44 35 28 24 19 16 12 9 11 16 17 17 17 18 19 23 26 26 26 28 30 31 35 34 32
52 51 50 50 50 50 51 52 52 50 50 50 51 52 47 25 29 39 38 37 33 26 24 23 19 18 16 13 11 10 12 13 14 16 18 20 22 20 22 23 24 27 32 33 31
50 49 50 50 50 51 51 52 53 51 50 51 52 48 40 23 23 33 35 30 26 25 21 20 21 18 17 15 15 14 14 15 13 15 15 16 15 15 16 18 20 22 28 31 33
51 51 50 50 50 51 51 52 52 52 51 51 52 46 33 19 20 27 31 29 24 23 21 21 19 19 18 18 17 14 14 10 9 10 12 13 12 13 15 17 20 22 22 26 30
50 51 51 50 50 51 51 52 53 53 52 52 51 45 31 36 20 26 26 23 21 21 23 20 18 18 17 15 14 14 10 9 7 8 10 10 12 13 19 21 22 23 24 23 26
50 51 51 50 50 51 52 53 52 52 51 47 44 38 33 23 21 25 25 23 19 18 19 20 18 18 15 12 9 10 11 11 9 13 15 12 14 14 19 20 21 22 23 24 26
50 51 51 50 51 52 50 47 45 45 43 35 30 31 27 26 29 27 24 21 19 19 18 19 15 14 13 16 14 14 14 13 12 11 13 17 16 15 16 19 19 21 23 24 26
50 51 51 51 52 52 48 35 35 35 32 28 26 26 25 27 23 23 22 19 20 18 18 17 14 14 11 14 15 15 12 12 12 12 16 18 18 18 18 19 20 22 22 23 24
50 50 51 52 52 49 38 36 35 36 33 24 22 22 22 26 23 23 22 19 17 16 16 15 13 13 11 13 12 13 12 13 12 15 17 17 16 17 16 17 17 18 20 22 25
50 51 52 52 45 38 38 37 33 38 29 25 21 21 22 23 22 21 22 21 17 15 15 15 14 12 12 12 12 14 13 13 15 15 11 15 10 16 14 15 16 19 23 24 25
50 50 51 51 46 36 38 36 36 40 27 21 18 21 20 21 19 19 20 20 19 17 17 15 15 14 14 13 14 14 15 16 16 16 16 14 11 13 13 13 16 20 22 25 28
50 50 51 47 44 36 35 36 41 34 25 19 17 16 17 17 17 18 19 21 21 19 19 18 18 17 16 17 16 16 16 17 17 17 14 15 11 9 10 12 16 17 17 19 25
49 49 49 43 37 37 37 37 33 27 23 16 16 16 17 17 18 20 21 22 20 19 20 19 17 17 18 17 19 19 20 14 13 13 12 13 11 12 17 13 15 17 19 21 28
48 48 48 39 40 41 39 34 30 22 19 19 19 18 17 17 19 18 20 20 21 20 19 19 18 24 26 19 18 22 25 22 19 13 9 16 12 12 16 19 18 20 22 24 27
47 46 45 44 41 41 35 29 27 25 22 20 19 17 17 17 20 21 19 18 18 21 29 23 23 26 26 21 20 19 21 23 22 19 15 14 15 22 20 19 22 21 22 23 27
43 40 38 42 44 41 35 30 25 25 24 22 20 20 19 17 17 18 17 21 21 23 25 24 25 26 25 25 21 22 24 27 24 17 13 11 13 12 20 21 21 23 23 26 28
46 34 42 42 43 36 31 26 25 23 25 22 22 22 21 20 19 18 18 21 26 21 27 24 25 25 29 28 23 22 22 23 25 21 22 17 16 25 24 24 23 24 25 27 29
40 26 41 36 29 31 22 25 29 18 20 22 25 25 25 25 23 20 22 26 31 25 21 25 30 23 19 22 25 25 28 28 31 26 22 21 16 23 27 25 26 26 27 27 29
32 27 36 30 30 22 19 17 17 19 22 23 25 25 26 26 25 23 26 26 26 25 31 34 34 30 23 23 20 19 19 21 28 34 26 23 23 26 26 26 26 27 26 27 29
29 24 26 28 27 26 23 22 21 22 22 23 25 25 26 25 25 27 25 26 27 25 35 34 28 26 22 23 32 30 24 25 25 29 20 19 19 23 26 27 26 27 29 28 29
30 28 31 19 21 25 24 23 20 20 23 23 24 24 23 24 22 20 21 24 29 33 30 30 28 28 25 22 22 23 21 20 19 19 21 22 20 22 24 26 26 30 30 30 30
28 27 25 24 27 26 25 22 22 20 22 20 20 21 25 25 24 22 22 24 25 25 28 32 34 30 27 21 17 15 15 17 18 21 22 23 24 27 27 29 31 32 32 31 31
29 32 31 32 25 19 19 21 19 21 22 20 24 26 25 25 27 28 30 30 28 29 30 36 35 30 25 17 20 17 18 20 26 25 27 26 23 25 26 26 30 33 33 34 34

GFSSW_sfc_dewp_069.txt.gz
Dewpoint
52 53 52 51 52 52 52 52 52 52 52 52 53 53 53 53 53 46 44 43 46 55 54 32 22 15 22 24 23 23 22 21 23 26 26 26 25 24 24 25 27 30 32 35 35
52 52 52 52 52 51 50 51 52 52 53 53 53 53 53 53 49 44 46 59 56 55 27 19 13 12 21 19 20 20 19 20 21 22 22 22 23 25 27 28 29 34 36 37 35
51 51 52 52 51 51 50 51 51 52 53 53 53 52 53 52 43 39 59 59 58 54 27 30 30 16 14 15 16 18 17 20 21 21 20 19 20 22 27 28 31 31 33 35 37
51 50 50 50 50 50 51 51 51 52 52 52 52 52 52 49 34 35 61 60 58 40 35 38 32 9 11 14 13 13 17 18 19 19 18 17 17 17 20 31 32 33 35 36 36
50 50 50 50 51 50 51 51 51 52 52 52 52 52 50 43 39 49 61 59 45 41 41 40 27 14 8 10 13 15 16 15 15 17 16 17 17 17 17 28 34 37 37 35 36
50 51 51 51 52 51 51 51 51 51 52 53 52 52 48 34 36 45 43 41 34 35 35 27 21 21 18 17 15 14 14 13 13 14 16 16 16 17 17 23 30 34 35 33 34
51 50 50 51 52 51 51 51 51 51 52 53 52 48 41 35 35 36 32 30 31 31 27 23 20 19 19 17 17 15 14 13 12 12 11 15 12 14 19 19 20 29 30 32 34
52 51 51 51 51 52 52 53 53 53 52 53 52 47 42 35 34 31 32 30 31 28 24 22 21 19 18 17 16 14 14 13 13 12 12 13 10 13 17 17 20 21 20 21 31
52 52 50 51 52 53 53 53 53 55 55 53 49 46 37 38 21 21 22 29 29 27 24 20 23 20 18 14 14 14 11 11 12 14 12 11 10 14 18 16 19 19 24 20 25
51 51 51 51 52 53 53 53 53 53 51 48 43 42 43 34 24 20 18 25 26 23 20 19 19 18 16 15 11 11 12 10 11 12 11 9 9 11 17 16 17 23 23 25 26
50 51 52 52 53 53 51 47 47 47 46 40 41 36 35 29 23 20 24 26 27 23 20 19 17 16 17 16 14 13 12 11 12 15 15 14 12 15 17 17 18 19 22 24 25
50 50 51 52 53 53 50 44 35 32 30 38 42 39 36 25 24 25 28 23 23 20 20 19 16 18 18 17 16 14 11 14 16 17 14 15 18 17 17 20 22 25 25 25 28
51 51 51 52 52 50 44 44 40 34 32 30 30 30 26 21 22 24 24 23 22 19 18 17 17 17 15 15 14 13 12 14 14 14 13 13 15 20 24 20 19 20 27 27 29
50 50 50 51 48 43 39 41 33 39 31 29 26 21 19 21 23 23 24 22 20 17 18 17 16 14 14 14 13 10 15 14 18 15 14 18 14 18 21 19 20 19 19 26 28
50 50 50 49 46 41 38 33 35 41 30 26 22 21 19 20 22 23 24 22 21 20 18 17 17 16 16 15 14 14 19 20 19 17 16 15 15 15 17 15 15 19 19 24 26
49 49 49 46 48 43 43 36 37 36 31 23 19 18 17 17 20 20 21 21 20 19 18 17 19 18 20 24 24 17 21 20 21 18 14 14 15 12 14 15 16 23 23 25 25
48 48 47 43 39 38 39 37 32 31 29 22 18 18 16 15 15 16 17 19 18 17 19 25 30 32 33 31 31 31 19 16 16 15 15 21 25 22 25 23 17 18 24 26 30
47 48 48 41 42 41 41 36 29 28 27 28 23 21 16 13 14 17 17 18 22 27 32 32 29 30 38 36 36 37 33 22 16 17 19 28 27 25 29 27 23 22 24 29 33
47 47 46 46 45 45 38 32 30 30 26 23 22 19 16 16 19 19 19 20 26 29 26 28 29 36 36 35 35 33 32 34 29 30 27 25 26 29 29 28 23 21 22 24 27
42 43 46 47 49 42 36 34 31 31 21 19 20 20 18 18 19 20 20 30 30 30 31 32 29 28 26 30 32 34 33 31 32 26 22 19 19 30 30 30 29 25 24 27 25
44 43 45 44 44 39 32 30 30 23 19 22 20 18 19 19 21 21 20 25 29 30 32 34 34 29 28 31 28 29 29 34 34 30 22 21 21 32 31 31 32 31 31 28 27
39 36 45 45 33 31 31 27 28 20 23 22 24 25 25 25 23 21 21 24 31 31 31 37 35 31 26 26 32 34 35 35 31 25 29 28 26 29 31 30 31 31 31 34 34
35 39 44 40 32 28 29 25 24 20 21 23 25 25 25 23 24 25 26 28 28 29 32 36 28 24 23 25 32 29 33 35 36 35 30 27 25 29 34 34 34 35 34 35 36
37 38 37 38 35 32 30 28 24 24 21 22 23 23 23 25 23 24 23 23 28 29 37 31 26 25 22 22 30 30 29 29 29 30 28 27 26 27 30 33 34 34 36 36 41
41 37 37 31 31 33 33 30 26 23 22 23 23 20 20 22 24 23 23 22 27 38 32 32 26 29 29 28 24 23 23 28 27 28 25 24 24 26 34 35 37 39 41 42 42
37 34 32 30 35 32 33 31 23 19 21 19 23 22 23 25 25 25 26 28 28 29 30 34 28 32 29 28 25 27 26 25 27 28 32 30 27 30 34 37 39 40 40 42 39
38 39 34 35 33 29 30 30 25 25 23 21 22 24 23 23 28 28 29 30 30 28 28 28 29 28 26 26 25 21 30 32 32 34 33 30 32 37 35 38 40 41 42 41 39

GFSSW_sfc_dewp_072.txt.gz
Dewpoint
51 51 51 51 51 51 51 51 51 51 52 52 52 53 52 53 53 47 43 39 47 54 55 36 27 21 20 19 25 25 23 22 23 24 26 29 27 27 26 24 26 29 33 34 35
51 51 51 50 51 50 50 51 51 51 51 52 52 52 53 53 49 46 44 53 58 60 40 31 18 15 17 21 22 20 19 20 23 23 22 24 23 23 23 23 26 30 35 38 35
50 51 50 51 51 50 50 50 51 51 51 52 52 52 53 52 45 41 57 55 60 58 29 27 29 29 13 18 19 18 18 19 20 22 23 22 21 21 21 24 27 28 31 35 38
50 51 51 51 51 51 50 51 51 51 52 51 51 52 52 50 31 35 61 57 60 41 31 36 38 24 10 13 14 13 16 18 18 20 20 19 20 19 18 21 30 33 34 35 34
50 51 51 51 51 51 51 51 51 51 51 51 51 52 50 43 40 44 60 59 49 41 41 41 40 26 8 8 10 13 14 14 17 18 18 19 19 18 17 22 28 34 36 36 34
51 50 51 51 51 51 51 51 50 51 51 51 51 52 48 26 29 51 50 49 38 37 35 38 32 23 18 14 16 15 14 15 15 15 15 15 15 17 18 23 29 36 35 35 36
51 51 51 51 51 51 51 52 52 53 51 51 51 49 45 31 36 47 41 36 33 33 34 33 22 19 21 16 19 17 14 15 15 13 12 14 12 12 17 18 18 25 31 36 36
51 51 51 51 51 51 52 54 54 53 53 51 52 48 39 40 38 33 37 31 31 31 31 26 23 22 19 18 15 15 15 12 13 15 15 12 10 13 16 16 17 20 27 32 34
51 52 51 51 52 52 53 54 53 54 54 53 47 46 38 47 40 34 32 32 30 31 29 22 22 20 18 16 14 14 11 11 12 13 14 12 11 14 16 16 18 19 21 22 26
51 51 51 51 52 53 54 54 53 52 51 49 45 41 41 37 27 23 24 28 25 28 24 23 19 17 17 15 11 11 11 12 12 12 13 12 13 14 14 17 16 17 22 24 26
50 51 51 51 52 53 51 46 42 45 45 37 39 36 37 37 23 17 19 25 28 25 21 21 16 15 16 17 16 15 14 13 14 14 17 15 17 17 17 16 15 18 22 23 26
50 49 50 51 51 51 48 42 42 33 29 42 40 39 40 40 33 24 27 24 24 19 22 19 17 17 18 18 18 18 16 14 15 18 15 14 14 15 18 18 19 21 22 23 26
50 50 50 51 51 49 44 43 44 41 32 32 35 37 38 38 35 25 27 26 22 21 21 18 18 20 18 17 16 15 16 14 14 21 18 15 14 16 20 20 20 23 23 25 25
50 50 50 50 44 43 39 40 37 40 31 31 30 29 28 22 23 24 27 24 23 20 20 18 18 18 18 16 16 12 14 16 20 20 15 20 14 17 19 18 18 19 20 24 26
49 49 49 48 42 38 39 41 40 40 26 34 24 22 20 20 24 24 24 25 21 19 20 18 18 18 17 21 28 22 22 18 20 19 17 16 14 15 18 17 18 18 19 20 24
48 49 49 47 46 43 43 40 37 35 29 29 20 19 19 21 21 22 25 25 24 21 20 19 24 24 25 30 31 31 26 20 19 18 14 15 14 16 16 15 18 20 23 20 24
47 48 48 43 37 40 40 38 31 30 34 25 22 22 18 16 16 19 22 20 18 16 19 30 29 32 32 30 31 34 31 23 17 14 14 17 21 16 26 26 29 28 26 25 32
47 48 48 44 40 42 40 34 27 29 26 25 22 21 21 19 19 21 21 21 28 29 32 31 26 33 36 36 33 34 33 26 20 19 17 28 23 24 27 30 31 31 26 29 34
46 40 45 44 42 44 37 31 29 32 27 22 22 20 19 18 20 22 22 28 30 30 28 31 29 33 35 35 36 34 31 34 31 33 29 26 25 28 30 31 31 30 30 31 32
39 41 44 46 45 40 34 33 31 32 23 20 20 21 17 17 19 22 22 31 30 32 31 32 28 31 31 35 36 36 37 29 34 26 24 24 24 24 31 32 33 33 32 32 31
38 38 43 46 41 37 31 31 31 26 23 21 22 21 22 23 22 21 21 24 31 31 33 33 31 29 29 31 32 34 33 34 33 34 27 23 20 31 33 33 36 34 32 34 36
36 30 39 39 31 33 27 29 31 24 25 25 27 26 25 25 23 22 23 27 31 31 31 36 32 26 25 24 31 35 35 35 29 28 32 29 25 35 31 32 33 33 34 34 36
33 35 42 36 29 30 29 30 27 25 25 23 26 26 25 22 21 27 26 26 28 28 32 34 26 21 21 25 31 28 34 35 35 34 29 27 25 29 35 33 36 33 34 36 36
35 36 35 36 34 32 31 32 29 30 24 23 22 24 23 23 24 23 24 28 29 33 39 33 24 22 21 23 27 29 30 32 33 28 29 29 27 30 33 35 37 37 36 35 35
39 35 32 30 29 30 31 31 28 24 20 21 22 23 24 23 23 23 27 28 29 38 33 29 26 27 29 29 29 27 26 27 30 30 27 26 27 32 34 36 37 39 40 42 41
34 33 33 31 31 34 33 32 31 29 22 21 23 23 23 21 23 25 27 27 27 29 27 31 26 30 29 26 27 25 28 29 33 34 35 32 29 36 35 38 38 38 39 38 39
36 38 35 33 32 34 32 31 35 31 26 20 20 23 22 23 28 27 27 28 27 26 25 27 26 25 24 29 27 24 34 35 35 36 34 29 35 36 35 35 35 38 36 34 37

GFSSW_sfc_dewp_075.txt.gz
Dewpoint
51 51 50 51 51 52 50 50 50 51 52 51 52 52 52 52 52 47 40 32 44 51 52 37 32 27 20 19 24 26 23 23 23 25 25 27 26 29 28 25 25 29 34 33 34
50 51 51 52 52 52 51 50 50 50 50 52 51 52 51 52 49 46 44 48 52 55 42 34 28 14 14 20 22 22 21 21 24 24 23 24 23 23 22 22 22 23 33 35 34
50 51 51 52 52 52 51 51 51 50 50 51 51 51 51 51 44 40 54 52 55 55 39 29 25 30 16 20 20 20 20 21 21 22 23 22 22 23 22 21 22 25 29 34 34
50 50 51 52 51 52 51 51 50 51 50 50 50 50 52 50 30 35 61 55 57 52 30 28 34 28 12 13 15 16 16 17 18 19 22 21 21 21 21 21 22 22 30 33 33
51 50 50 51 51 51 51 51 50 50 50 50 50 51 48 40 38 38 59 55 53 35 35 39 37 27 12 8 12 13 14 14 14 15 17 19 18 19 18 21 22 22 24 35 34
51 51 50 50 51 51 51 50 50 50 50 50 50 51 46 22 12 49 52 50 39 39 38 40 35 30 25 15 14 17 16 16 15 15 16 16 16 16 17 19 20 23 34 36 35
51 51 51 51 50 51 51 52 53 53 51 50 50 49 45 14 34 51 45 40 35 35 34 36 34 21 19 17 18 17 14 15 15 15 14 16 13 13 17 20 20 19 22 35 36
51 51 51 51 52 51 52 53 54 53 52 51 52 48 35 35 38 40 41 36 32 32 32 32 25 20 17 19 17 14 15 13 13 16 14 13 12 15 16 16 18 18 19 22 27
52 51 50 51 52 52 53 53 54 54 54 52 47 44 37 47 42 36 34 32 32 31 31 30 23 19 18 15 14 14 10 11 12 13 13 12 12 16 17 16 17 19 19 24 27
52 51 50 51 51 52 53 53 53 52 52 50 46 39 38 35 37 32 34 32 33 28 24 24 20 17 16 15 12 11 10 12 12 13 14 12 13 16 18 18 17 17 19 23 24
52 51 51 51 51 52 50 45 40 40 45 36 34 35 34 37 33 23 26 30 28 25 21 21 17 15 15 16 16 16 15 15 16 16 16 15 16 17 18 17 16 17 19 23 25
52 51 51 51 50 51 48 38 39 36 36 40 39 36 35 39 38 37 22 18 23 21 21 18 17 18 19 19 18 18 17 16 17 18 16 17 16 16 16 16 18 18 21 24 25
52 51 51 51 51 48 42 41 42 41 35 32 39 37 37 39 37 38 25 24 21 20 20 17 18 20 20 19 18 17 16 16 17 19 19 18 16 17 20 21 20 21 23 24 24
51 51 50 50 44 42 38 41 41 39 32 32 31 34 36 34 27 36 28 25 24 20 20 20 20 19 18 18 21 20 21 22 17 19 13 18 11 15 18 18 19 18 19 20 23
51 50 50 50 38 36 38 41 40 39 21 35 29 30 26 23 23 24 27 24 22 21 20 19 19 19 18 18 29 26 29 21 21 18 16 17 14 16 17 16 17 19 19 23 22
50 50 49 47 46 42 43 41 38 34 27 29 21 18 19 21 22 22 24 26 24 22 21 20 28 26 23 31 31 32 28 25 21 18 14 15 15 14 15 16 18 22 30 30 29
50 49 48 42 32 38 41 37 30 29 33 25 23 23 18 18 19 22 20 21 20 17 17 27 30 33 34 31 33 34 31 24 20 17 17 17 17 15 20 21 26 29 31 30 30
49 48 48 44 39 42 39 34 27 27 25 26 23 21 19 19 20 23 24 24 29 29 30 27 24 30 36 34 32 34 32 27 23 22 19 28 22 20 25 31 32 33 31 32 33
47 39 42 45 45 41 36 28 25 32 26 21 20 21 20 19 19 22 22 28 30 29 26 29 29 33 36 37 35 34 32 37 31 30 26 26 26 26 30 31 34 33 33 34 33
41 39 40 45 43 39 33 30 32 32 24 21 18 21 18 19 21 21 22 30 30 32 30 30 27 31 31 35 35 34 37 31 33 24 22 24 24 24 28 30 33 33 32 35 35
36 32 36 44 41 36 30 30 31 28 25 24 22 21 23 23 21 21 21 25 31 32 33 32 29 25 27 28 29 29 32 37 35 33 23 20 24 33 36 35 32 34 32 34 36
35 29 34 39 34 32 27 29 32 26 28 24 28 26 25 24 21 21 23 26 30 33 30 35 31 26 24 26 30 32 31 34 29 27 32 29 25 37 37 33 33 34 34 34 37
36 33 39 37 29 30 31 30 32 29 28 24 24 26 25 23 21 25 27 26 29 32 33 34 25 21 20 21 26 28 33 35 34 33 28 24 25 34 35 36 36 36 37 35 37
34 35 33 35 32 31 31 30 30 29 24 22 21 23 22 22 24 22 25 28 29 32 39 32 24 21 20 22 26 27 29 29 31 29 27 30 28 30 34 36 37 37 39 39 39
37 32 32 28 30 29 35 34 34 32 29 24 22 25 24 21 23 23 28 27 32 35 32 27 24 25 25 27 29 28 28 28 30 30 28 27 28 33 36 35 37 38 38 39 40
35 34 35 33 31 33 35 35 34 34 36 31 23 23 22 21 21 21 25 26 25 28 26 29 26 29 28 28 26 26 30 34 32 32 32 31 31 36 36 36 35 36 35 35 34
35 36 35 35 34 35 35 34 34 37 36 37 32 30 26 23 24 27 27 26 26 26 25 25 26 24 23 27 26 25 32 34 35 35 35 29 32 34 35 36 36 36 36 35 34